User: anonymous   Login
Location: Unspecified
(0.0000°N, 0.0000°E)
Time: 01:48:17
(UTC+00:00)
Language:

Kosmos-2190 - Orbit

View from above orbital plane
View from above orbital plane
View from above satellite
View from above satellite

Ground track
Ground track

The orbit data is extracted from the following two-line orbital elements,

1 21979U 92030D   18021.92052074 -.00000009 +00000-0 +44384-4 0  9990
2 21979 074.0043 358.0332 0030841 047.6086 341.4962 12.52236529171891
Epoch (UTC): 21 January 2018 22:05:32
Eccentricity: 0.0030841
inclination: 74.0043°
perigee height: 1431 km
apogee height: 1479 km
right ascension of ascending node: 358.0332°
argument of perigee: 47.6086°
revolutions per day: 12.52236529
mean anomaly at epoch: 341.4962°
orbit number at epoch: 17189

The dashed part of the orbit path shows where the satellite is in the earth's shadow,  

DLR